Wind_Speed
8 9 10 10 10 11 11 11 12 12 13 13 13 13 13 14 14 14 14 15 14 14 15 15 15 15 15 15 15 15 14 14 15 15 14 13 13 12 12 12 12 12 13
8 8 9 10 10 10 10 10 11 11 12 13 13 14 14 14 15 15 15 15 15 15 15 16 16 16 16 16 16 16 16 16 16 16 16 15 14 13 13 13 13 13 13
8 9 9 10 10 10 10 11 11 11 11 12 13 14 14 14 14 15 16 16 15 15 16 16 16 16 17 17 17 17 17 17 17 17 16 16 15 15 14 14 14 14 13
9 9 9 10 10 11 11 10 11 11 11 12 13 13 14 14 14 15 15 15 16 16 16 15 16 17 17 17 17 17 17 17 17 18 17 17 17 16 15 15 14 14 13
9 9 10 10 10 10 10 10 11 11 11 12 12 13 14 14 14 14 14 15 16 16 16 16 16 17 17 17 17 17 18 17 18 18 17 17 17 16 16 15 15 15 15
9 9 10 10 10 11 11 11 11 11 11 12 12 13 14 14 14 14 14 15 15 16 16 17 17 17 17 17 17 17 17 17 17 17 17 17 16 16 16 16 16 16 16
11 10 10 10 10 11 11 11 12 12 12 12 12 13 14 14 14 14 14 15 15 16 15 16 17 18 18 17 17 17 16 17 16 17 18 17 16 16 17 17 17 17 17
12 12 11 11 11 11 11 12 12 12 13 13 13 14 14 15 15 15 15 15 16 16 16 17 17 18 18 18 18 18 17 17 17 16 17 17 17 17 17 17 17 17 17
12 12 12 12 12 12 12 12 12 12 13 13 14 14 14 14 15 15 16 16 16 16 16 17 17 18 18 18 18 17 17 18 17 17 17 17 17 17 17 17 17 17 16
12 12 13 13 13 12 12 12 12 12 13 13 14 14 15 15 15 15 15 16 17 17 17 17 17 18 18 18 17 16 16 17 17 17 17 17 16 16 17 17 16 16 17
13 13 13 13 13 13 13 13 13 13 13 13 13 14 14 15 15 15 15 16 16 17 17 17 18 17 17 17 17 16 16 15 16 16 16 16 16 16 17 17 17 17 17
15 15 15 14 14 14 14 14 13 13 13 13 13 14 14 15 15 16 16 16 15 16 16 17 17 17 16 16 16 16 16 15 16 16 16 17 17 17 18 18 18 18 18
17 16 16 15 15 15 14 14 14 14 14 14 14 14 15 15 16 15 16 16 16 15 16 16 16 17 17 17 17 17 17 17 17 17 18 18 18 18 19 19 19 19 19
18 18 17 16 16 16 15 15 15 15 15 15 15 16 16 16 16 17 17 17 17 17 17 17 17 17 18 18 18 19 19 19 19 19 19 20 20 20 20 20 19 20 20
19 18 18 18 18 17 17 17 17 17 17 17 17 17 17 17 17 18 18 18 18 18 18 18 18 18 18 19 19 20 20 20 20 20 21 21 21 21 21 21 21 20 20
19 19 19 19 18 18 18 18 18 18 18 18 18 18 18 18 18 18 18 18 18 19 19 19 18 18 19 19 19 20 20 20 20 21 21 22 22 22 22 22 22 22 21
19 19 19 19 18 18 18 18 18 18 18 18 18 18 18 18 18 18 19 19 20 20 20 20 20 20 19 20 20 21 21 20 21 22 22 23 23 22 22 23 23 23 22
18 18 18 18 18 18 19 19 18 18 18 18 18 18 18 19 19 19 19 20 21 21 21 21 22 22 21 21 22 22 22 21 21 22 22 22 22 21 22 22 23 23 23
19 19 19 19 19 19 19 18 19 19 19 18 18 18 18 19 19 19 20 20 21 21 22 22 22 22 22 23 23 23 23 22 21 21 21 21 21 20 20 20 21 22 22
20 20 19 19 19 19 19 19 19 19 20 19 18 19 19 19 20 20 20 20 21 21 22 22 22 22 23 23 23 23 23 23 22 21 21 21 22 21 21 21 21 22 23
21 20 20 20 20 20 20 19 19 19 20 20 20 20 20 20 20 20 20 20 21 21 21 22 22 23 23 23 24 24 24 24 24 23 22 22 23 23 23 22 22 22 22
21 21 21 21 20 20 20 20 20 20 21 21 21 20 20 20 20 20 21 21 21 21 21 21 22 22 23 23 24 25 25 24 24 24 23 23 23 24 24 24 24 24 24
22 22 22 21 21 21 21 21 21 21 21 21 21 22 21 21 21 21 21 21 21 21 22 22 22 22 23 24 24 24 24 24 24 24 24 24 25 25 25 25 25 25 25
23 22 23 23 22 22 22 22 22 22 22 22 22 22 22 22 21 21 21 21 21 21 22 23 23 23 23 24 24 25 25 25 25 25 26 26 26 26 26 26 26 27 27
23 23 23 24 24 23 23 22 22 22 22 23 23 22 22 22 21 21 22 22 22 22 22 23 23 24 25 25 25 26 26 26 26 26 26 27 27 27 28 28 28 28 29
23 24 24 24 25 24 24 23 23 23 23 23 23 24 23 23 22 22 23 23 23 23 23 23 23 24 25 26 26 26 26 27 27 27 28 28 27 27 28 29 29 30 31
Wind_Direction
277 271 266 263 264 266 264 262 258 254 253 249 246 247 244 242 241 238 238 239 238 239 240 241 244 246 249 249 249 249 248 249 251 253 253 253 254 252 253 252 251 252 254
285 277 271 268 267 266 263 260 261 258 255 249 247 247 246 246 242 243 241 241 240 242 244 246 247 248 250 249 249 248 248 249 250 252 251 251 251 250 250 251 254 256 257
292 287 278 273 271 267 264 263 261 260 258 254 249 246 246 247 245 245 244 242 242 243 245 246 245 248 249 249 249 249 249 250 250 251 250 249 249 249 252 253 253 256 258
296 293 289 282 279 275 270 264 260 260 259 258 255 250 247 246 245 247 248 246 244 244 247 248 246 247 248 248 249 250 249 250 250 249 248 248 249 249 251 252 251 254 258
295 295 294 290 285 281 278 271 266 261 261 262 260 255 253 250 249 249 250 248 249 250 250 251 246 246 248 249 249 249 249 250 250 248 246 247 247 247 249 250 251 254 256
292 292 294 293 286 280 280 279 275 269 265 263 261 257 254 252 252 253 253 253 254 254 255 253 251 249 250 250 250 250 250 250 250 247 246 246 246 247 249 252 253 255 256
287 288 290 291 287 282 278 277 275 271 266 262 260 257 253 253 254 254 255 257 257 258 259 255 254 251 250 251 250 250 251 251 250 248 246 245 248 250 250 253 255 254 255
286 285 286 287 286 283 279 276 274 271 266 260 256 254 253 252 252 254 257 258 259 258 258 259 255 252 252 251 250 248 248 249 247 247 247 247 249 250 251 252 252 253 254
284 282 283 285 284 282 278 277 276 274 268 265 258 254 252 251 251 254 257 258 258 259 259 257 255 256 252 251 250 248 248 248 247 246 247 250 250 249 250 251 251 253 254
283 281 280 282 281 279 278 278 278 277 274 270 265 260 259 256 254 256 257 259 260 262 260 258 258 257 253 254 250 249 250 250 249 248 248 248 249 249 249 249 251 254 257
281 281 280 279 277 275 276 276 276 277 276 273 269 266 264 262 261 259 262 262 262 263 264 263 260 258 255 253 250 251 251 253 252 250 249 248 249 250 252 253 254 255 257
278 278 278 276 276 274 275 275 274 274 273 272 270 270 269 267 266 263 265 266 265 265 265 265 262 260 259 256 256 255 255 256 255 254 252 252 251 251 253 254 254 255 257
276 275 275 274 273 273 273 274 274 273 272 271 270 270 269 266 264 263 264 265 265 265 265 264 263 261 259 258 258 257 257 257 257 256 255 255 254 254 255 255 255 257 259
275 275 274 275 274 273 272 272 273 273 272 271 269 268 269 267 263 262 263 263 264 264 264 263 263 260 259 257 257 257 258 259 259 258 258 257 257 256 255 255 256 258 259
274 274 274 275 274 274 273 272 272 272 272 271 270 269 268 268 266 265 263 262 263 263 263 263 262 260 259 258 258 258 258 258 259 258 258 258 256 256 255 255 256 258 260
274 273 273 273 273 275 273 272 271 271 271 272 271 271 270 270 268 267 265 264 263 263 262 262 262 262 259 259 258 258 260 260 260 259 260 259 257 257 255 256 256 257 259
274 274 274 273 273 274 273 273 274 270 270 271 272 271 270 269 267 267 267 266 265 263 262 262 263 263 260 258 257 257 258 259 260 260 261 261 257 254 254 255 254 255 257
272 273 275 274 273 274 274 274 274 271 270 271 271 271 269 269 269 270 270 268 266 265 264 264 264 263 260 259 257 257 258 259 261 260 263 262 257 255 253 255 255 256 257
273 273 274 274 274 274 274 275 274 272 271 271 272 272 271 270 271 272 272 270 268 267 265 265 264 262 261 260 259 259 258 260 263 263 263 264 261 258 255 254 254 255 256
272 272 273 273 275 275 275 275 275 273 272 271 270 271 271 271 271 272 272 271 269 269 267 266 264 262 261 261 260 261 261 261 262 264 265 265 264 262 259 258 257 257 257
271 271 271 272 273 274 275 275 274 276 275 273 272 271 271 272 273 273 271 270 269 268 267 266 266 264 262 262 261 261 261 262 261 264 266 265 263 261 260 262 262 260 260
270 270 270 270 271 274 275 275 274 275 276 275 273 272 272 272 274 273 271 270 270 268 266 266 265 264 264 263 262 263 263 262 261 263 265 265 265 262 261 263 261 261 263
270 267 268 269 271 273 274 275 275 274 274 275 273 271 271 272 272 271 270 271 270 268 266 265 265 264 264 265 264 265 263 262 261 262 263 265 265 264 263 264 263 263 264
270 268 267 269 270 272 273 274 274 274 273 273 274 274 272 271 271 271 271 270 270 269 267 267 266 265 266 265 265 266 265 264 263 264 263 265 266 265 263 263 264 264 265
271 269 267 269 269 271 272 272 272 271 271 271 272 272 272 271 271 271 271 271 270 270 269 268 268 267 267 267 267 267 267 266 265 264 263 264 265 265 263 264 264 265 266
270 268 268 269 270 270 271 272 271 271 271 270 270 270 270 270 270 271 271 271 271 271 270 269 268 268 268 268 267 268 268 268 267 266 265 264 265 265 265 265 265 266 266
Height
5845 5844 5843 5843 5842 5842 5841 5841 5841 5841 5841 5842 5842 5843 5843 5844 5844 5845 5845 5846 5846 5847 5847 5848 5849 5849 5850 5850 5851 5851 5852 5852 5853 5853 5854 5854 5855 5855 5856 5856 5856 5857 5857
5843 5842 5841 5841 5840 5839 5839 5839 5839 5839 5839 5839 5840 5840 5841 5841 5842 5842 5843 5843 5843 5844 5844 5845 5845 5846 5847 5847 5847 5848 5848 5849 5850 5850 5851 5852 5852 5853 5853 5854 5854 5854 5855
5842 5840 5840 5839 5838 5837 5837 5837 5836 5836 5836 5837 5837 5837 5838 5838 5839 5839 5839 5840 5840 5841 5841 5841 5842 5842 5843 5843 5844 5844 5845 5846 5846 5847 5848 5848 5849 5850 5851 5851 5852 5852 5852
5840 5839 5838 5837 5836 5835 5835 5835 5834 5834 5834 5834 5834 5834 5835 5835 5836 5836 5837 5837 5837 5838 5838 5838 5838 5839 5839 5839 5840 5840 5841 5842 5842 5843 5844 5845 5846 5847 5848 5848 5849 5849 5850
5838 5837 5836 5835 5834 5833 5833 5832 5832 5832 5831 5831 5831 5831 5832 5832 5833 5833 5834 5834 5834 5835 5835 5835 5835 5835 5835 5836 5836 5836 5837 5838 5838 5839 5840 5841 5842 5843 5844 5845 5846 5846 5847
5837 5835 5834 5833 5832 5831 5831 5830 5830 5829 5829 5829 5829 5829 5829 5829 5830 5830 5831 5831 5831 5831 5832 5832 5832 5832 5832 5832 5832 5833 5833 5834 5835 5835 5836 5837 5838 5840 5841 5842 5843 5843 5844
5835 5834 5832 5831 5830 5829 5829 5828 5827 5827 5826 5826 5826 5826 5827 5827 5827 5827 5827 5828 5828 5828 5828 5828 5828 5828 5828 5829 5829 5829 5830 5830 5831 5832 5833 5834 5835 5836 5837 5838 5839 5840 5840
5832 5831 5830 5829 5828 5827 5826 5825 5825 5825 5824 5824 5824 5824 5824 5825 5824 5824 5824 5824 5824 5824 5824 5824 5824 5825 5825 5825 5825 5825 5826 5826 5827 5828 5829 5830 5831 5832 5833 5834 5835 5836 5837
5829 5828 5828 5826 5825 5824 5824 5823 5822 5822 5821 5821 5821 5821 5821 5821 5821 5821 5821 5821 5821 5821 5821 5821 5821 5821 5821 5821 5821 5822 5822 5823 5823 5824 5825 5827 5828 5829 5829 5831 5831 5832 5833
5826 5825 5825 5823 5822 5821 5821 5820 5820 5819 5818 5818 5818 5818 5818 5817 5818 5818 5818 5818 5818 5818 5817 5817 5817 5817 5817 5817 5817 5818 5818 5819 5820 5820 5821 5822 5824 5825 5826 5827 5828 5828 5829
5823 5822 5821 5820 5819 5818 5818 5817 5816 5816 5815 5815 5815 5814 5814 5814 5814 5814 5814 5814 5814 5814 5813 5813 5813 5813 5813 5813 5814 5814 5815 5815 5816 5817 5817 5818 5819 5821 5822 5823 5824 5824 5825
5819 5818 5817 5816 5816 5815 5814 5813 5813 5812 5812 5812 5811 5811 5811 5811 5810 5811 5811 5811 5810 5810 5810 5809 5809 5809 5809 5810 5810 5811 5811 5812 5812 5813 5814 5814 5815 5816 5817 5818 5819 5820 5821
5815 5814 5813 5812 5812 5811 5810 5810 5809 5809 5808 5808 5807 5807 5807 5807 5807 5807 5807 5807 5807 5807 5806 5806 5806 5805 5806 5806 5806 5807 5807 5808 5808 5809 5810 5810 5810 5812 5813 5814 5815 5815 5816
5810 5809 5808 5808 5807 5807 5806 5806 5805 5805 5804 5804 5803 5803 5803 5803 5803 5803 5803 5802 5802 5803 5802 5802 5801 5801 5801 5802 5802 5803 5803 5803 5804 5804 5805 5805 5806 5807 5808 5809 5810 5811 5811
5805 5804 5804 5803 5802 5802 5802 5801 5801 5800 5800 5799 5799 5798 5798 5798 5798 5798 5798 5798 5798 5798 5798 5797 5797 5797 5797 5797 5797 5798 5798 5799 5799 5799 5800 5800 5801 5802 5802 5803 5805 5806 5806
5800 5799 5798 5798 5797 5797 5796 5796 5796 5795 5795 5794 5794 5794 5793 5793 5793 5793 5793 5792 5792 5793 5793 5792 5792 5792 5792 5792 5793 5793 5793 5793 5794 5794 5794 5794 5795 5795 5796 5798 5799 5800 5801
5794 5793 5793 5792 5792 5792 5791 5791 5790 5790 5790 5789 5789 5788 5788 5788 5788 5788 5787 5787 5787 5787 5787 5787 5787 5787 5787 5787 5788 5788 5788 5788 5788 5788 5788 5788 5788 5788 5790 5791 5793 5794 5795
5788 5788 5788 5787 5787 5786 5786 5785 5785 5785 5784 5784 5784 5783 5783 5782 5782 5782 5782 5781 5781 5781 5781 5781 5781 5781 5781 5782 5782 5783 5783 5783 5783 5782 5782 5782 5781 5781 5783 5785 5787 5788 5789
5783 5782 5782 5782 5781 5781 5780 5780 5779 5779 5779 5778 5778 5777 5777 5777 5776 5776 5776 5775 5775 5775 5775 5775 5775 5775 5775 5775 5776 5776 5777 5777 5777 5777 5776 5776 5776 5776 5777 5779 5780 5782 5783
5777 5777 5777 5776 5776 5775 5775 5774 5774 5773 5773 5773 5772 5772 5771 5771 5771 5770 5769 5769 5769 5769 5768 5768 5768 5768 5768 5768 5769 5769 5770 5771 5771 5771 5771 5771 5771 5771 5772 5774 5775 5776 5776
5771 5771 5771 5770 5770 5770 5769 5769 5768 5768 5767 5767 5766 5766 5765 5765 5764 5764 5763 5763 5762 5762 5762 5762 5762 5762 5762 5762 5762 5763 5763 5764 5764 5765 5765 5765 5766 5766 5767 5768 5769 5769 5770
5765 5765 5764 5764 5764 5764 5763 5763 5762 5761 5761 5760 5760 5759 5759 5758 5758 5757 5757 5756 5756 5756 5756 5755 5756 5756 5756 5756 5755 5755 5756 5757 5758 5758 5758 5759 5759 5760 5760 5761 5762 5763 5764
5758 5758 5758 5757 5757 5757 5757 5756 5756 5755 5754 5754 5753 5753 5753 5752 5752 5751 5750 5750 5749 5749 5749 5749 5749 5749 5749 5749 5749 5748 5748 5749 5750 5751 5751 5752 5752 5753 5753 5754 5755 5755 5756
5751 5751 5751 5750 5750 5750 5750 5749 5748 5748 5747 5747 5747 5746 5746 5745 5745 5744 5744 5743 5743 5743 5742 5742 5742 5742 5742 5742 5741 5741 5741 5741 5742 5743 5744 5745 5745 5745 5746 5746 5747 5747 5748
5744 5743 5743 5743 5743 5743 5743 5742 5742 5741 5741 5740 5740 5739 5739 5738 5738 5738 5737 5737 5736 5736 5735 5735 5735 5734 5734 5734 5734 5734 5734 5734 5735 5735 5735 5736 5736 5737 5737 5738 5738 5739 5739
5736 5736 5736 5736 5736 5735 5735 5735 5734 5734 5734 5733 5733 5732 5732 5732 5731 5730 5730 5730 5729 5729 5728 5728 5727 5727 5727 5726 5726 5726 5726 5726 5727 5727 5727 5727 5727 5728 5729 5729 5729 5730 5730